Погода в Дмитровке

Украина / Запорожская область     46°50′20″N   36°34′17″E
темп.,
°C
ветер,
м/с
пор.,
м/с
влажн.,
%
обл.,
%
осадки,
мм/ч
давл.,
гПа
погр.,
м
22 апреля, чт
чт2200:00+9юз34905 0.0 102058
03:00+8зсз23895 0.0 102132
06:00+8з12905 0.0 102113
09:00+11юз33765 0.0 1022344
12:00+12ююз457145 0.0 1023510
15:00+12ююз56729 0.0 1023469
18:00+11ююз45730 0.0 1022217
21:00+10юз338211 0.0 102338
23 апреля, пт
пт2300:00+10юз238119 0.0 102228
03:00+9ююз22855 0.0 102211
06:00+9юз22860 0.0 102213
09:00+12ююз34735 0.0 1022300
12:00+12ююз5770100 0.0 1022409
15:00+12ю587034 0.0 1021442
18:00+11ю5978100 0.0 1019269
21:00+11ююз51180100 0.0 1019310
24 апреля, сб
сб2400:00+10юз4687100 0.4 1017154
03:00+9зюз47905 0.4 1016109
06:00+9зюз5109098 0.0 1016321
09:00+10сз677714 0.1 1018637
12:00+13зсз67525 0.0 10191050
15:00+13зюз7105274 0.0 10181506
18:00+13з695497 0.0 10191064
21:00+8зсз6115324 0.0 1022580
25 апреля, вс
вс2500:00+6сз485765 0.0 1022244
03:00+5сз345557 0.0 1023108
06:00+5сз3461100 0.0 1023112
09:00+8сз3348100 0.0 1023742
12:00+10зюз1241100 0.0 10221131
15:00+10ю5447100 0.0 1021868
18:00+9ююз4451100 0.0 1021408
21:00+8зюз2355100 0.0 1021123
26 апреля, пн
пн2600:00+7зсз2259100 0.0 102088
03:00+6ссз3361100 0.0 101978
06:00+6сз226383 0.0 101970
09:00+10з335238 0.0 1019412
12:00+11юз675415 0.0 1018902
15:00+10зсз777596 0.1 1018845
18:00+11юз346123 0.3 1018830
21:00+9зюз44674 0.4 101967